Location: Fredericton
(45.9636°N, 66.6431°W)
Time: 17:09:46
(UTC-04:00)

Tiangong - Visible Passes

Search period start: 24 January 2022 00:00
Search period end: 03 February 2022 00:00
Orbit: 383 x 386 km, 41.5° (Epoch: 23 January)

Date Brightness Start Highest point End Pass type
(mag) Time Alt. Az. Time Alt. Az. Time Alt. Az.
27 Jan 3.4 18:59:43 10° S 19:01:28 14° SSE 19:01:29 14° SSE visible
28 Jan 3.3 19:35:24 10° SW 19:36:53 20° SSW 19:36:53 20° SSW visible
29 Jan 3.0 18:36:04 10° SSW 18:38:28 20° SSE 18:40:01 14° ESE visible
29 Jan 4.4 20:11:56 10° WSW 20:12:13 12° WSW 20:12:13 12° WSW visible
30 Jan 2.2 19:12:15 10° SW 19:15:08 32° S 19:15:18 31° SSE visible
31 Jan 2.7 18:12:41 10° SW 18:15:24 26° SSE 18:18:07 10° ESE visible
31 Jan 3.3 19:48:55 10° WSW 19:50:32 24° SW 19:50:32 24° SW visible
01 Feb 2.2 18:49:08 10° WSW 18:52:04 35° S 18:53:33 22° SE visible
02 Feb 2.3 19:25:51 10° WSW 19:28:44 32° S 19:28:46 32° S visible
